Location: Wellington
(41.3000°S, 174.7830°E)
Time: 17:00:55
(UTC+13:00)

Cosmos 1862 - Pass Details

Date: 24 January 2019
Orbit: 540 x 556 km, 82.5° (Epoch: 20 February)

Event Time Altitude Azimuth Distance (km) Brightness Sun altitude
Rises 22:22:24 0° 191° (S) 2,757 7.8 -15.1°
Reaches altitude 10° 22:24:36 10° 193° (SSW) 1,852 6.9 -15.4°
Maximum altitude 22:28:39 67° 275° (W) 604 3.6 -16.0°
Enters shadow 22:31:24 19° 354° (N) 1,332 4.9 -16.3°
